Regional Weather Roundup
Issued by NWS Wakefield, VA

Home | Current Version | Previous Version | Graphics & Text | Print | Product List | Glossary On
Versions: 1 2 3 4 5 6 7 8 9 10 11 12 13 14 15 16 17 18 19 20 21 22 23 24 25 26 27 28 29 30 31 32 33 34 35 36 37 38 39 40 41 42 43 44 45 46 47 48 49 50
723
ASUS41 KAKQ 071415
RWRAKQ

REGIONAL WEATHER ROUNDUP
NATIONAL WEATHER SERVICE WAKEFIELD VA
900 AM EST WED DEC 07 2016

Note: "fair" indicates few or no clouds below 12,000 feet with no
significant weather and/or obstructions to visibility. * = Denotes
station may not report precipitation (e.g., rain,snow,etc.),
thunder or fog.

VAZ042-051-052>054-056-071500-
NORTHERN VIRGINIA

CITY           SKY/WX    TMP DP  RH WIND       PRES   REMARKS
WASH NATIONAL  CLOUDY    45  40  82 N7        30.03R
DULLES         CLOUDY    41  38  89 N7        30.03R
FORT BELVOIR   CLOUDY    43  38  82 VRB3      30.03R
QUANTICO       CLOUDY    44  39  82 NW6       30.05R
FREDERICKSBRG* CLOUDY    43  43 100 CALM      30.04R
STAFFORD*      CLOUDY    41  41 100 NW3       30.08R
WARRENTON      CLOUDY    40  36  87 CALM      30.03R FOG
CULPEPER*      CLOUDY    39  39 100 CALM      30.05R
MANASSAS*      NOT AVBL
LEESBURG*      CLOUDY    41  41 100 MISG      30.04R
WINCHESTER     CLOUDY    39  32  75 NW7       30.04R
FRONT ROYAL*   FAIR      37  37 100 CALM      30.04R
LURAY*         FOG       37  37 100 CALM      30.04R VSB<1/4
$$

VAZ048-049-060>072-079>083-071500-
CENTRAL AND SOUTH CENTRAL VIRGINIA

CITY           SKY/WX    TMP DP  RH WIND       PRES   REMARKS
RICHMOND       PTSUNNY   45  41  86 N6        30.03R
CHESTERFIELD*  FAIR      46  28  49 CALM      30.04R
PETERSBURG*    CLOUDY    44  41  89 N3        30.05R
HANOVER        SUNNY     44  39  82 CALM      30.04S
TAPPAHANNOCK*  SUNNY     45  44  97 N6        30.03R
QUINTON*       FAIR      44  42  93 N3        30.02S
CHARLOTTSVILLE CLOUDY    41  38  89 W3        30.02R
GORDONSVILLE*  FAIR      40  40 100 CALM      30.02R
ORANGE*          N/A     41  41 100 CALM      30.04R
LOUISA*        PTSUNNY   45  45 100 CALM      30.01R
BUMPASS*       FAIR      43  42  99 CALM      30.03R
FARMVILLE*     MOSUNNY   39  39  99 CALM      30.02R
CREWE*         FAIR      42  42 100 CALM      30.03R
FORT PICKETT*  CLOUDY    44  40  88 NW5       30.04R
CHASE CITY*    FAIR      39  38  94 CALM      30.04R
CLARKSVILLE*   FAIR      41  41 100 CALM      30.04R
SOUTH HILL*    SUNNY     42  41  97 CALM      30.09R
LAWRENCEVILLE* CLOUDY    44  41  89 N3        30.04R
EMPORIA*       CLOUDY    43  41  93 NW5       30.06R
$$

VAZ088>098-071500-
SOUTHEAST VIRGINIA

CITY           SKY/WX    TMP DP  RH WIND       PRES   REMARKS
NORFOLK        CLOUDY    47  44  90 NW8       30.01R
VIRGINIA BEACH CLOUDY    48  44  86 NW15      30.00R
NORFOLK NAVAL  MOSUNNY   49  44  83 NW13G24   30.02R
WEST POINT*    MOSUNNY   46  43  92 N3        30.05R
SALUDA*        FAIR      46  43  92 NW7       30.01R
NEWPORT NEWS   MOSUNNY   47  43  86 NW10      30.02R
LANGLEY AFB    PTSUNNY   47  44  91 NW8       30.01R
FORT EUSTIS    CLOUDY    47  43  86 NW7       30.00R
WILLIAMSBURG*  PTSUNNY   46  46 100 NW8       30.03R
HR EXEC AP*    CLOUDY    46  43  87 NW6       30.01R
FRANKLIN*      CLOUDY    45  42  91 NW5       30.04R
US460-WAKEFLD  CLOUDY    45  43  93 VRB6      30.03R FOG
$$

VAZ020-022-025-037-045-071500-
WEST CENTRAL AND SOUTHWEST VIRGINIA

CITY           SKY/WX    TMP DP  RH WIND       PRES   REMARKS
STAUNTON*      FOG       33  33 100 CALM      30.04R VSB 1/4
WAYNESBORO*    FAIR      36  35  96 N3        30.01R
HOT SPRINGS VA CLOUDY    32  30  93 NW10      29.95R WCI  24
LYNCHBURG      CLOUDY    42  40  92 SW3       30.04R
DANVILLE       SUNNY     37  37 100 CALM      30.05R
SOUTH BOSTON*  CLOUDY    36  34  94 CALM      30.05R VSB<1/4
MARTINSVILLE   SUNNY     35  35  98 CALM      30.08R
ROANOKE        MOSUNNY   48  34  58 N3        30.05R
BLACKSBURG     CLOUDY    40  32  72 W5        30.06R
DUBLIN*        CLOUDY    43  33  70 CALM      30.05R
MARION*        CLOUDY    38  33  81 SW7       30.08R
HILLSVILLE*    SUNNY     37  32  82 CALM      30.02R
RICHLANDS*     FAIR      36  33  91 CALM      30.07R
WISE*          SUNNY     36  36 100 CALM      30.09R
ABINGDON*      SUNNY     39  35  87 CALM      30.09R
$$

MDZ021>025-VAZ099-100-071500-
SOUTHERN MARYLAND AND THE DELMARVA PENINSULA

CITY           SKY/WX    TMP DP  RH WIND       PRES   REMARKS
PATUXENT RIVER PTSUNNY   46  43  89 NW12      30.02R
BAY BRIDGE APT CLOUDY    45  41  87 N7        30.02R FOG
LEONARDTOWN    PTSUNNY   45  41  87 NW5       30.04R
DOVER          CLOUDY    42  42 100 NW12      30.00R
GEORGETOWN     CLOUDY    44  42  93 N8        30.01R FOG
EASTON         PTSUNNY   45  41  87 N6        30.04R
CAMBRIDGE      PTSUNNY   45  41  87 N7        30.00R
SALISBURY      LGT RAIN  44  43  96 NW10G20   29.99R FOG
OCEAN CITY     CLOUDY    45  44  97 NW10      29.98R FOG
WALLOPS ISLAND CLOUDY    45  45 100 NW9       30.00R
ACCOMACK*      CLOUDY    46  44  94 NW12G20   30.01R
$$

NCZ012>017-030>032-071500-
NORTH CENTRAL AND EASTERN NORTH CAROLINA

CITY           SKY/WX    TMP DP  RH WIND       PRES   REMARKS
ROANOKE RAPIDS CLOUDY    45  43  93 NW5       30.04R
RALEIGH        MOSUNNY   44  41  89 CALM      30.05R
ELIZABETH CITY CLOUDY    47  45  93 NW12      30.02R
AHOSKIE*       CLOUDY    43  42  93 CALM      30.04R
EDENTON*       CLOUDY    47  44  88 N9        30.03R
CURRITUCK*     CLOUDY    47  47 100 NW8       30.02R
KILL DEVIL HLS CLOUDY    47  47 100 CALM      29.98R
MANTEO         CLOUDY    47  46  97 N12G17    30.00R
CAPE HATTERAS  CLOUDY    48  46  93 NW8G17    29.99R
TARBORO*       NOT AVBL
GOLDSBORO      SUNNY     47  46  98 NW6       30.03R
WASHINGTON     CLOUDY    46  42  88 NW9       30.04R
GREENVILLE     PTSUNNY   45  43  93 N5        30.06R
NEW BERN       MOSUNNY   48  43  82 N9        30.04R
WILMINGTON     MOSUNNY   46  43  89 NW7       30.05R
$$

VAZ048-071500-
ELSEWHERE

CITY           SKY/WX    TMP DP  RH WIND       PRES   REMARKS
HARRISBURG PA  CLOUDY    40  39  97 W5        30.02R FOG
BALTIMORE      CLOUDY    43  41  93 NW3       30.01R
ANNAPOLIS      CLOUDY    45  41  86 NW7       30.02R
ANDREWS AFB    CLOUDY    44  40  85 NW12      30.01R
PHILADELPHIA   CLOUDY    41  39  93 N10       30.02R
HENDERSON NC   SUNNY     38  37  97 CALM      30.04R
GREENSBORO     MOSUNNY   46  40  79 NW9       30.03S
ROCKY MOUNT    SUNNY     46  43  89 NW6       30.05R
$$

VAZ100-071500-
MARINE

STATION/POSITION TIME  TEMP    WIND        PRES    WAVE   SWELL
                       AIR SEA DIR/SP/G            HT/PER HT/PER
                 (UTC) (F)     (DEG/KT/KT) (MB)    (FT/S) (FT/S)
BRANDYWINE LGT   1342   42     350/ 21/ 24   N/A
CAPE MAY NJ      1342   43 49  330/ 12/ 20 1014.7R
LEWES DE         1342   44 48  330/ 17/ 21 1015.0R
OCEAN-CITY-INLET 1342   45 50  350/ 13/ 15 1015.1R
WACHAPREAGUE VA  1336   46 49  300/  6/ 12 1015.4R
THOMAS POINT MD  1400   44 49  330/  6/  7   N/A
GOOSES REEF MD   1400   45 49  360/ 12/ 14 1017.1    1/ 3
COVE POINT MD    1336   45     360/ 14/ 15 1016.7R
SOLOMONS ISLAND  1336   45 50  320/  6/  8   N/A
BISHOPS HEAD MD  1336   45 47  340/  5/  9 1016.1R
PINEY POINT MD   1348          340/ 15/ 16   N/A
POTOMAC MD       1400   46 50  320/ 10/ 14 1015.7    1/ 2
CAMBRIDGE MD     1336   45 47  350/ 10/ 13 1015.2R
LEWISETTA VA     1336   45 48  340/  6/  8 1016.0R
RAPPAHANNOCK LGT 1348          330/ 17/ 19 1016.6R
STINGRAY PT      1350   47     340/ 12/ 14 1016.4R
YORK RVR RNG VA  1336   47     320/ 10/ 12 1016.0R
YORKTOWN VA      1336   46 51  320/ 13/ 17 1016.1R
JAMESTOWN VA     1400   45 51  300/ 10/ 12   N/A     0
DOMINION TERM VA 1336   47     340/ 11/ 15 1016.1R
KIPTOPEKE VA     1348      52  340/ 18/ 22   N/A
CHES BAY BRIDGE  1336   47 53  320/ 14/ 16 1015.8R
CAPE HENRY VA    1336   48     320/ 16/ 19   N/A
WILLOUBY STN VA  1336   46     310/ 10/ 11 1016.9R
S CRANEY ISL VA  1336   47     310/  8/ 12 1015.8R
CAPE HENRY BUOY  1342      55                N/A     6/ 9   2/11
CAPE CHARLES BUO 1356      55                N/A     6/ 9   2/11
OFFSHORE WE BUOY 1351      56                N/A     8/10   2/11
64NM E OF VA BCH 1350   53 59  340/ 23/ 27 1013.3R  10/ 9   5/ 9
DUCK PIER NC     1336   47 54  320/ 13/ 18 1014.9R
44100 DUCK FRF   1335      56                N/A     7/ 8   2/11
OREGON INLET NC  1336   48 56  310/ 15/ 20 1015.1R
HATTERAS NC      1336   48 60  330/ 18/ 23 1015.0R
DIAMOND SHLS NC  1350   54 74  340/ 17/ 23 1015.2R   6/ 5   3/ 8
CAPE LOOKOUT NC  1300   47     320/ 18/ 21 1015.3R
$$




USA.gov is the U.S. government's official web portal to all federal, state and local government web resources and services.